Weather Roundup
Issued by NWS

Home | Current Version | Previous Version | Text Only | Print | Product List | Glossary On
Versions: 1 2 3 4 5 6 7 8 9 10 11 12 13 14 15 16 17 18 19 20 21 22 23 24 25 26 27 28 29 30 31 32 33 34 35 36 37 38 39 40 41 42 43 44 45 46 47 48 49 50
000
NZUS93 KARX 311110
HRRWXR

CURRENT HOURLY OBSERVATIONS ACROSS
MUCH OF THE UPPER MISSISSIPPI VALLEY
NATIONAL WEATHER SERVICE LA CROSSE WI
600 AM CDT TUE MAY 31 2016


...SOUTHEAST MINNESOTA...


CITY           SKY/WX    TMP DP  RH WIND       PRES   REMARKS
ROCHESTER      MOCLDY    62  56  80 S12       29.91R
ROCHESTER/MAYO FAIR      64  55  71 SE7       29.89S
WINONA         MOCLDY    63  59  88 SE7       29.91S
AUSTIN         CLOUDY    61  55  82 S6        29.89F
ALBERT LEA     LGT RAIN  63  57  82 S8        29.88S
DODGE CENTER   CLOUDY    63  55  77 S14       29.89S
PRESTON        CLOUDY    62  54  74 SE6       29.92S
OWATONNA       CLOUDY    64  55  72 S9        29.87S
FARIBAULT      CLOUDY    64  55  72 S2        29.88R
$$

...ELSEWHERE IN MINNESOTA...


CITY           SKY/WX    TMP DP  RH WIND       PRES   REMARKS
MINNEAPOLIS    CLOUDY    66  57  72 S5        29.87S
INTNL FALLS    MOCLDY    54  46  74 SE17G26   29.92R
DULUTH         LGT RAIN  47  41  80 E20G28    29.97F
RED WING       CLOUDY    68  54  60 SE5       29.87S
REDWOOD FALLS  LGT RAIN  63  59  87 S15       29.79F
MANKATO        CLOUDY    66  55  68 S10       29.85F
WORTHINGTON    CLOUDY    62  59  90 SW9       29.87R
FAIRMONT       CLOUDY    61  57  88 S9        29.86F
$$

...SOUTHWEST WISCONSIN...


CITY           SKY/WX    TMP DP  RH WIND       PRES   REMARKS
LA CROSSE      CLOUDY    64  59  83 SE7       29.92R
PRAIRIE DU CHI CLOUDY    60  59  96 CALM      29.94S
BOSCOBEL       NOT AVBL
LONE ROCK      CLEAR     62  59  90 E3        29.97F
PLATTEVILLE    PTCLDY    64  59  85 E10       29.96S
FORT MC COY    CLOUDY    60  60  99 E5        29.96R
MAUSTON-NEW LI CLOUDY    59  58  97 S5        29.97S FOG
VIROQUA        FAIR      61  59  94 E10       29.96R
WIS DELLS      CLOUDY    64  54  71 SE6       29.98F
$$

...ELSEWHERE IN WISCONSIN...


CITY           SKY/WX    TMP DP  RH WIND       PRES   REMARKS
MILWAUKEE      CLOUDY    66  54  65 N6        30.02R
MADISON        CLOUDY    63  58  83 SE5       30.00S
GREEN BAY      PTCLDY    57  53  86 NE12      30.07R
EAU CLAIRE     MOCLDY    63  59  87 CALM      29.90R
BLACK RVR FLS  FAIR      60  60 100 CALM      29.95R
MEDFORD        MOCLDY    59  56  88 E10       29.95R
WAUSAU         MOCLDY    58  50  75 E9        30.01R
WIS RAPIDS     CLOUDY    62  54  74 E8        30.00R
MARSHFIELD     CLOUDY    62  54  74 E9        29.96S
RICE LAKE      CLOUDY    64  55  73 SE6       29.93R
$$

...NORTHEAST IOWA...


CITY           SKY/WX    TMP DP  RH WIND       PRES   REMARKS
WATERLOO       CLOUDY    62  58  86 SE7       29.91S
DUBUQUE        CLEAR     63  57  81 E8        29.96S
DECORAH        CLOUDY    63  61  94 SE10      29.92S
MASON CITY     CLOUDY    61  59  93 S10       29.91S
CHARLES CITY   CLOUDY    63  61  94 SE12      29.91F
OELWEIN        CLEAR     63  59  88 SE9       29.94R
$$

...ELSEWHERE IN IOWA...


CITY           SKY/WX    TMP DP  RH WIND       PRES   REMARKS
DES MOINES     CLOUDY    65  58  78 S10       29.93R
IOWA CITY      CLEAR     62  59  90 CALM      29.94F
FORT DODGE     MOCLDY    64  57  77 S9        29.89F
MARSHALLTOWN   CLOUDY    64  59  83 S10       29.92R
CEDAR RAPIDS   CLEAR     60  60 100 S3        29.93S
$$

...NORTHERN ILLINOIS...


CITY           SKY/WX    TMP DP  RH WIND       PRES   REMARKS
CHICAGO-OHARE  MOCLDY    66  54  65 CALM      29.99R
CHICAGO-MIDWAY CLOUDY    70  56  61 E8        29.98S
MOLINE         CLOUDY    66  62  87 E3        29.94S
ROCKFORD       CLOUDY    65  58  78 SE7       30.00F
PEORIA         CLOUDY    66  61  84 NE5       29.95F
$$

NOTE: "FAIR" INDICATES FEW OR NO CLOUDS BELOW 12,000 FEET WITH NO
SIGNIFICANT WEATHER AND/OR OBSTRUCTIONS TO VISIBILITY. WIND
SPEEDS ARE IN MILES-PER-HOUR.




USA.gov is the U.S. government's official web portal to all federal, state and local government web resources and services.